Home   Weather   Førde   Past weeks

Flag for Norway Past Weather in Førde, Norway — Yesterday and Last 2 Weeks

Now
30 °F

Passing clouds.


Feels Like: 27 °F
Forecast: 30 / 36 °F
Wind: 3 mph from Northwest

Location: Forde / Bringeland

Current Time: Dec 2, 2016 at 9:03:38 pm

Latest Report: Dec 2, 2016 at 8:20 pm


Visibility: N/A

Pressure: 30.21 "Hg

Humidity: 93%

Dew Point: 28 °F

Location of FørdeLocation

Past Weather in Førde — Graph

°F

Førde Temperature Yesterday

Maximum temperature yesterday: 41 °F (at 8:20 am)
Minimum temperature yesterday: 30 °F (at 4:50 pm)
Average temperature yesterday: 34 °F

High & Low Weather Summary for the Past Weeks

 TemperatureHumidityPressure
High46 °F (Nov 21, 5:50 am)100% (Nov 19, 7:50 am)30.45 "Hg (Nov 19, 7:50 am)
Low27 °F (Nov 28, 5:50 am)43% (Nov 21, 5:50 am)28.88 "Hg (Nov 18, 9:20 am)
Average34 °F87%29.80 "Hg
* Reported Nov 17 7:50 pm — Dec 2 7:50 pm, Førde, Weather by CustomWeather, © 2016

Note: Actual official high and low records may vary slightly from our data, if they occured in-between our weather recording intervals... More about our weather records

Advertising

Førde Weather History for the Previous 24 Hours

Scroll right to see more
 ConditionsComfort  
Time TempWeatherWind HumidityBarometerVisibility
7:50 pm
Fri, Dec 2
30 °FPassing clouds.3 mph93%30.21 "HgN/A
7:20 pm32 °FPassing clouds.1 mph87%30.21 "HgN/A
6:20 pm34 °FPassing clouds.5 mph75%30.21 "HgN/A
5:50 pm34 °FPassing clouds.3 mph81%30.21 "HgN/A
4:50 pm34 °FPassing clouds.5 mph75%30.21 "HgN/A
4:20 pm34 °FPassing clouds.5 mph75%30.21 "HgN/A
3:50 pm32 °FScattered showers. Passing clouds.3 mph87%30.21 "HgN/A
2:50 pm34 °FScattered clouds.3 mph81%30.21 "HgN/A
2:20 pm36 °FPartly sunny.7 mph75%30.21 "HgN/A
1:50 pm34 °FScattered clouds.5 mph81%30.18 "HgN/A
12:50 pm34 °FPartly sunny.2 mph87%30.18 "HgN/A
12:20 pm32 °FPartly sunny.2 mph93%30.18 "HgN/A
11:50 am34 °FScattered clouds.2 mph81%30.18 "HgN/A
11:20 am30 °FChilly.5 mph93%30.18 "HgN/A
10:50 am30 °FScattered clouds.6 mph93%30.18 "HgN/A
10:20 am32 °FScattered clouds.6 mph87%30.18 "HgN/A
9:50 am32 °FScattered showers. Broken clouds.6 mph93%30.15 "HgN/A
9:20 am32 °FSnow flurries. Partly cloudy.6 mph87%30.15 "Hg4 mi
8:50 am32 °FPassing clouds.6 mph87%30.15 "HgN/A
8:20 am32 °FSnow flurries. Passing clouds.6 mph87%30.12 "HgN/A
7:50 am30 °FPassing clouds.6 mph93%30.12 "HgN/A
7:20 am30 °FPassing clouds.6 mph93%29.89 "HgN/A
6:50 am32 °FPassing clouds.6 mph93%30.09 "HgN/A
6:20 am30 °FSnow flurries. Partly cloudy.5 mph93%30.09 "HgN/A
5:50 am30 °FSnow flurries. Partly cloudy.3 mph93%30.09 "HgN/A
11:20 pm
Thu, Dec 1
30 °FSnow showers. Ice fog.2 mph93%29.98 "Hg2 mi
10:50 pm30 °FSnow flurries. Passing clouds.5 mph93%29.98 "Hg4 mi
10:20 pm30 °FSnow flurries. Passing clouds.5 mph93%29.95 "HgN/A
9:50 pm30 °FSnow flurries. Passing clouds.5 mph93%29.95 "Hg4 mi
9:20 pm30 °FLight mixture of precip. Passing clouds.5 mph93%29.92 "HgN/A
Weather by CustomWeather, © 2016

See weather overviewHow to use our weather pages